Weather History for Burns, OR

Change the Weather History Date:

Tuesday, March 26, 2013

  Actual Average Record
Temperature  
Mean Temperature 42 °F 40 °F  
Max Temperature 54 °F 52 °F 71 °F (1966)
Min Temperature 29 °F 27 °F 7 °F (1975)
Degree Days  
Heating Degree Days 23 25  
Month to date heating degree days 734 734  
Since 1 July heating degree days 6091 6262  
Cooling Degree Days 0 0  
Month to date cooling degree days 0 0  
Year to date cooling degree days 0 0  
Moisture  
Dew Point 31 °F    
Average Humidity 65    
Maximum Humidity 89    
Minimum Humidity 41    
Precipitation  
Precipitation 0.00 in 0.03 in 0.74 in (1940)
Month to date precipitation 0.18 0.93  
Year to date precipitation 0.92 3.14  
Sea Level Pressure  
Sea Level Pressure 29.93 in    
Wind  
Wind Speed 4 mph (ENE)    
Max Wind Speed 13 mph    
Max Gust Speed 15 mph    
Visibility 10 miles    
Events      
T = Trace of Precipitation, MM = Missing Value Source: NWS Daily Summary

Daily Weather History Graph

Daily Weather History Graph

Search for Another Location

Airport:

Trip Planner

Search our weather history database for the weather conditions in past years. The results will help you decide how hot, cold, wet, or windy it might be!

Date:

Astronomy

Mar. 26, 2013 Rise Set
Actual Time 6:47 AM PDT 7:15 PM PDT
Civil Twilight 6:18 AM PDT 7:44 PM PDT
Nautical Twilight 5:45 AM PDT 8:18 PM PDT
Astronomical Twilight 5:10 AM PDT 8:53 PM PDT
Moon 6:58 PM PDT 6:07 AM PDT
Length of Visible Light 13h 25m
Length of Day
12h 28m
Full, 100% of the Moon is Illuminated
Mar 26
Full
Mar 27
Full
Apr 2
Last Quarter
Apr 10
New
Apr 18
First Quarter

Hourly Weather History & Observations

Time (PDT) Temp. Windchill Dew Point Humidity Pressure Visibility Wind Dir Wind Speed Gust Speed Precip Events Conditions
12:53 AM 39.0 °F 31.8 °F 30.0 °F 70% 29.89 in 10.0 mi NE 11.5 mph - N/A   Mostly Cloudy
1:53 AM 35.1 °F 31.0 °F 28.0 °F 76% 29.90 in 10.0 mi West 4.6 mph - N/A   Mostly Cloudy
2:53 AM 37.9 °F 35.5 °F 30.0 °F 73% 29.90 in 10.0 mi WSW 3.5 mph - N/A   Overcast
3:53 AM 36.0 °F 32.1 °F 28.9 °F 76% 29.90 in 10.0 mi SSW 4.6 mph - N/A   Overcast
4:53 AM 34.0 °F - 28.0 °F 79% 29.91 in 10.0 mi Calm Calm - N/A   Mostly Cloudy
5:53 AM 34.0 °F - 28.0 °F 79% 29.94 in 10.0 mi Calm Calm - N/A   Overcast
6:53 AM 30.0 °F - 26.1 °F 85% 29.95 in 10.0 mi Calm Calm - N/A   Overcast
7:53 AM 34.0 °F - 30.0 °F 85% 29.96 in 10.0 mi Calm Calm - N/A   Overcast
8:53 AM 41.0 °F - 30.0 °F 65% 29.95 in 10.0 mi Calm Calm - N/A   Overcast
9:53 AM 45.0 °F 43.5 °F 27.0 °F 49% 29.95 in 10.0 mi Variable 3.5 mph - N/A   Mostly Cloudy
10:53 AM 46.9 °F - 28.0 °F 48% 29.94 in 10.0 mi Variable 4.6 mph - N/A   Scattered Clouds
11:53 AM 48.9 °F - 30.0 °F 48% 29.94 in 10.0 mi SE 5.8 mph - N/A   Clear
12:53 PM 50.0 °F - 30.9 °F 48% 29.94 in 10.0 mi South 5.8 mph - N/A   Scattered Clouds
1:53 PM 53.1 °F - 30.9 °F 43% 29.93 in 10.0 mi Variable 6.9 mph - N/A   Mostly Cloudy
2:53 PM 53.1 °F - 32.0 °F 45% 29.91 in 10.0 mi Variable 5.8 mph - N/A   Overcast
3:53 PM 51.1 °F - 32.0 °F 48% 29.92 in 10.0 mi Variable 3.5 mph - N/A   Overcast
4:53 PM 51.1 °F - 32.0 °F 48% 29.92 in 10.0 mi East 5.8 mph - N/A   Overcast
5:53 PM 50.0 °F - 33.1 °F 52% 29.92 in 10.0 mi NE 5.8 mph - N/A   Overcast
6:53 PM 48.9 °F - 33.1 °F 54% 29.94 in 10.0 mi NE 4.6 mph - N/A   Overcast
7:53 PM 46.0 °F 43.1 °F 34.0 °F 63% 29.94 in 10.0 mi ENE 5.8 mph - N/A   Overcast
8:53 PM 45.0 °F - 34.0 °F 65% 29.94 in 10.0 mi Calm Calm - N/A   Overcast
9:53 PM 42.1 °F - 34.0 °F 73% 29.94 in 10.0 mi Calm Calm - N/A   Overcast
10:53 PM 42.1 °F 38.4 °F 35.1 °F 76% 29.93 in 10.0 mi NE 5.8 mph - N/A   Overcast
11:53 PM 42.1 °F 40.2 °F 34.0 °F 73% 29.93 in 10.0 mi NNE 3.5 mph - N/A   Overcast